[[{"header":{"parameterUnit":"m.s-1","parameterCategory":2,"la1":30.2991,"la2":30.254,"lo1":-89.0895,"lo2":-89.0444,"dy":0.0017,"dx":0.0017,"nx":28,"ny":28,"refTime":"2025-04-15T09:00:00:Z","depth":"0","parameterNumber":2,"parameterNumberName":"U-component_of_CURRENTS"},"data":[0,0,0,0,0,0,0,0,0,0,0,0,0,0,0,0,0,0,0,0,0,0,0,0,0,0,0,0,0,0,0,0,0,0,0,0,0,0,0,0,0,0,0,0,0,0,0,0,0,0,0,0,0,0,0,0,0,0,0.3246,0.3246,0,0.3228,0.3228,0.3227,0.321,0.321,0.321,0.321,0.3177,0.3176,0.3176,0,0,0,0,0,0,0,0,0,0,0,0,0,0.3278,0.3277,0.3246,0.3246,0.3246,0.3228,0.3228,0.3227,0.321,0.321,0.321,0.321,0.3178,0.3177,0.3175,0,0,0,0,0,0,0,0,0,0,0,0,0,0.326,0.3277,0.3246,0.3237,0.3237,0.3228,0.3228,0.3227,0.321,0.321,0.321,0.321,0.3178,0.3177,0.3175,0.3166,0,0,0.3171,0.3171,0,0,0,0,0,0,0,0,0.3261,0.3258,0.3239,0.3238,0.3237,0.3224,0.3227,0.3207,0.321,0.3217,0.321,0.321,0.3193,0.3191,0.3183,0.3164,0.3163,0.3171,0.317,0.317,0.3169,0,0,0,0,0,0,0,0.3262,0.3259,0.3236,0.3239,0.3238,0.3239,0.3236,0.3223,0.3203,0.3217,0.3216,0.3219,0.3192,0.3185,0.3183,0.3163,0.3171,0.317,0.3169,0.3168,0.3166,0.3166,0,0,0,0,0,0,0.3269,0.326,0.3237,0.3236,0.3253,0.3239,0.3235,0.3226,0.3203,0.3201,0.3219,0.3218,0.3187,0.3184,0.3181,0.3201,0.317,0.3168,0.3168,0.3165,0.3166,0.3167,0,0,0,0,0,0,0.327,0.3267,0.3238,0.3251,0.3247,0.3238,0.3228,0.3226,0.3222,0.3205,0.3202,0.3218,0.3187,0.3183,0.3174,0.3199,0.3168,0.3166,0.3164,0.3165,0.3166,0.322,0,0,0,0,0,0,0.327,0.3267,0.3264,0.3251,0.3247,0.3236,0.3228,0.3225,0.3224,0.3223,0.3203,0.32,0.3187,0.3177,0.3173,0.3196,0.3165,0.3163,0.3165,0.3166,0.3218,0.3223,0.3228,0,0,0,0,0,0.3271,0.3264,0.3264,0.3261,0.3243,0.3237,0.3234,0.3227,0.3224,0.3223,0.3211,0.3201,0.3183,0.3176,0.3171,0.3195,0.3162,0.3164,0.3166,0.3215,0.3222,0.3228,0,0,0,0,0,0,0.3272,0.3261,0.3261,0.3249,0.3248,0.3235,0.3233,0.323,0.3219,0.3219,0.3202,0.3198,0.3204,0.3187,0.3179,0.3199,0.3175,0.3176,0.3214,0.322,0.3225,0.3312,0.3164,0,0,0,0,0,0.3274,0.3265,0.326,0.3252,0.3252,0.3245,0.3242,0.3239,0.3229,0.3225,0.321,0.3202,0.3207,0.3203,0.3197,0.3198,0.3274,0.3213,0.3218,0.3223,0.3291,0.3434,0.3461,0.3172,0.3172,0.3172,0,0,0.327,0.3266,0.3259,0.3253,0.3249,0.3255,0.3242,0.3241,0.3256,0.3223,0.3229,0.3218,0.3212,0.3221,0.3223,0.3209,0.3334,0.3225,0.3229,0.3296,0.3439,0.3468,0.3494,0.3173,0.3173,0.3173,0,0,0.3263,0.3257,0.3252,0.3256,0.3259,0.3261,0.3264,0.3255,0.3262,0.326,0.3257,0.3278,0.3242,0.3276,0.3282,0.3315,0.3359,0.3285,0.338,0.3516,0.3543,0.3568,0.3665,0.3698,0.3285,0.3285,0.3285,0,0.3263,0.326,0.325,0.3255,0.3276,0.3267,0.3287,0.3288,0.3278,0.3323,0.3268,0.3319,0.329,0.3377,0.3378,0.3336,0.3407,0.3352,0.353,0.3556,0.3581,0.3674,0.3711,0.3288,0.3287,0.3287,0.3287,0,0.3252,0.3263,0.3263,0.3274,0.3292,0.3305,0.3321,0.3347,0.335,0.3371,0.3443,0.3419,0.3477,0.3443,0.3414,0.3567,0.3557,0.3524,0.3526,0.3615,0.3705,0.3742,0.3292,0.3291,0.329,0.3289,0,0,0.3223,0.3254,0.3255,0.3298,0.3315,0.3341,0.3386,0.3459,0.3542,0.3522,0.3651,0.3632,0.3657,0.3671,0.3646,0.3738,0.3924,0.3705,0.3711,0.3824,0.4221,0.4094,0.4122,0.3926,0.3934,0.394,0.4202,0,0.3228,0.3269,0.3277,0.3341,0.338,0.3421,0.3481,0.3552,0.3601,0.3714,0.3752,0.3827,0.373,0.3769,0.3856,0.3916,0.4031,0.3857,0.4103,0.4111,0.4007,0.4164,0.3871,0.4072,0.4238,0.4244,0.4249,0,0.3218,0.3263,0.3325,0.3442,0.3464,0.3501,0.3663,0.3712,0.3864,0.3915,0.4023,0.4048,0.4184,0.4082,0.4291,0.4185,0.424,0.4269,0.4279,0.419,0.4055,0.4016,0.4133,0.3982,0.4306,0.4301,0.4297,0,0.3241,0.3307,0.338,0.3406,0.3513,0.3583,0.365,0.3786,0.3882,0.4067,0.4172,0.4311,0.4402,0.4508,0.4526,0.4449,0.476,0.4657,0.4609,0.4598,0.4419,0.4379,0.4447,0.4879,0.4878,0.4877,0.4876,0,0.3261,0.332,0.3402,0.3446,0.3572,0.3631,0.3787,0.3879,0.4052,0.4204,0.4284,0.4431,0.4522,0.4663,0.4672,0.4758,0.4888,0.4705,0.4695,0.4417,0.4377,0.4288,0.4231,0.4887,0.4885,0.4883,0.4881,0,0.3281,0.3317,0.3418,0.3541,0.3583,0.3679,0.3845,0.3974,0.4113,0.4328,0.4399,0.4593,0.4755,0.482,0.5002,0.4936,0.4872,0.5024,0.4665,0.4607,0.4355,0.431,0.434,0.4224,0.5036,0.5035,0.5034,0,0.3298,0.335,0.3482,0.3552,0.3606,0.3743,0.3851,0.3996,0.4128,0.4408,0.4529,0.4744,0.4864,0.5059,0.4992,0.5032,0.4881,0.4791,0.459,0.4376,0.4322,0.4174,0.4063,0.4364,0.4358,0.4353,0.4349,0,0.3366,0.3405,0.3501,0.363,0.3738,0.3846,0.3997,0.4096,0.4288,0.4439,0.4642,0.4753,0.49,0.4787,0.4816,0.4787,0.4506,0.4686,0.4584,0.3938,0.3671,0.3536,0.4138,0.4303,0.4308,0.4311,0.4313,0.4315,0.3432,0.3504,0.3623,0.3737,0.3836,0.3918,0.3952,0.4111,0.4257,0.437,0.4573,0.4581,0.455,0.4519,0.4483,0.4168,0.4245,0.3958,0.3969,0.3876,0.362,0.411,0.4172,0.4175,0.4178,0.4181,0.4184,0,0.3512,0.3594,0.3724,0.382,0.3869,0.3918,0.4024,0.3995,0.4063,0.4174,0.4237,0.4097,0.3963,0.389,0.3634,0.3452,0.3296,0.334,0.3059,0.3024,0.3563,0.338,0.3124,0.3124,0.3124,0.3124,0.3125,0.3125,0.3576,0.3692,0.3743,0.3818,0.3846,0.3795,0.3788,0.3755,0.3757,0.3619,0.3467,0.3443,0.3445,0.3286,0.3007,0.2919,0.2713,0.2545,0.2662,0.2994,0.305,0.3104,0.2918,0.257,0.257,0.1909,0.1904,0.19]},{"header":{"parameterUnit":"m.s-1","parameterCategory":2,"la1":30.2991,"la2":30.254,"lo1":-89.0895,"lo2":-89.0444,"dy":0.0017,"dx":0.0017,"nx":28,"ny":28,"refTime":"2025-04-15T09:00:00:Z","depth":"0","parameterNumber":3,"parameterNumberName":"V-component_of_CURRENTS"},"data":[0,0,0,0,0,0,0,0,0,0,0,0,0,0,0,0,0,0,0,0,0,0,0,0,0,0,0,0,0,0,0,0,0,0,0,0,0,0,0,0,0,0,0,0,0,0,0,0,0,0,0,0,0,0,0,0,0,0,0.032,0.032,0,0.0297,0.0297,0.0297,0.0274,0.0274,0.0274,0.0274,0.0228,0.0227,0.0226,0,0,0,0,0,0,0,0,0,0,0,0,0,0.0297,0.0297,0.032,0.032,0.032,0.0298,0.0297,0.0297,0.0274,0.0274,0.0274,0.0274,0.0229,0.0227,0.0226,0,0,0,0,0,0,0,0,0,0,0,0,0,0.0293,0.0298,0.032,0.0307,0.0306,0.0298,0.0297,0.0297,0.0274,0.0274,0.0274,0.0273,0.0229,0.0228,0.0226,0.0221,0,0,0.0221,0.0221,0,0,0,0,0,0,0,0,0.0293,0.0293,0.0309,0.0308,0.0306,0.029,0.0272,0.0271,0.0274,0.0285,0.0274,0.0273,0.0248,0.0245,0.0239,0.0219,0.0217,0.0221,0.022,0.0219,0.0219,0,0,0,0,0,0,0,0.0293,0.0294,0.031,0.0309,0.0307,0.0286,0.0286,0.0272,0.0266,0.0284,0.0282,0.0282,0.0247,0.0241,0.0238,0.0217,0.0221,0.022,0.0219,0.0218,0.0199,0.0199,0,0,0,0,0,0,0.0302,0.0295,0.031,0.0309,0.03,0.0287,0.0286,0.0294,0.0267,0.0263,0.0282,0.0281,0.0244,0.024,0.0236,0.0251,0.0219,0.0218,0.0217,0.0198,0.0199,0.0199,0,0,0,0,0,0,0.0302,0.0304,0.0311,0.0302,0.0301,0.0288,0.0297,0.0294,0.0292,0.0267,0.0262,0.0284,0.0243,0.0239,0.023,0.0249,0.0217,0.0216,0.0198,0.0198,0.0199,0.0267,0,0,0,0,0,0,0.0301,0.0304,0.0309,0.0303,0.0302,0.0316,0.0297,0.0294,0.0292,0.0291,0.0266,0.0262,0.0243,0.0233,0.0229,0.0246,0.0215,0.0197,0.0198,0.0199,0.0264,0.027,0.0275,0,0,0,0,0,0.0301,0.0315,0.031,0.0311,0.0311,0.0317,0.0315,0.0303,0.0293,0.0298,0.028,0.0263,0.0235,0.0232,0.0227,0.0244,0.0197,0.0198,0.0199,0.0262,0.0269,0.0275,0,0,0,0,0,0,0.0305,0.0314,0.0308,0.0323,0.0323,0.0314,0.0316,0.0308,0.0298,0.0293,0.0268,0.0262,0.0262,0.0241,0.0239,0.0239,0.0213,0.0213,0.0263,0.0269,0.0274,0.0303,0.0213,0,0,0,0,0,0.0309,0.0323,0.0324,0.0335,0.0337,0.0327,0.0326,0.032,0.0311,0.0306,0.0289,0.0271,0.0262,0.0256,0.0241,0.0242,0.0242,0.0249,0.0254,0.0259,0.0278,0.0292,0.0301,0.0202,0.0202,0.0202,0,0,0.0312,0.032,0.0326,0.0337,0.0334,0.035,0.0326,0.0331,0.0346,0.0302,0.0312,0.0288,0.0265,0.0268,0.0266,0.0254,0.0286,0.026,0.0264,0.0281,0.0294,0.0304,0.0313,0.0203,0.0203,0.0203,0,0,0.0335,0.0335,0.0357,0.0364,0.0368,0.0364,0.037,0.0365,0.0365,0.0368,0.0343,0.0335,0.0314,0.0309,0.0303,0.0328,0.0312,0.0314,0.0368,0.0381,0.039,0.0398,0.0412,0.042,0.0318,0.0319,0.0319,0,0.0338,0.0372,0.0362,0.0388,0.0404,0.0377,0.0409,0.0403,0.0396,0.0411,0.038,0.0373,0.034,0.0367,0.0366,0.0343,0.0346,0.0347,0.039,0.0398,0.0405,0.0417,0.0426,0.0322,0.0322,0.0321,0.0321,0,0.0382,0.0408,0.0423,0.045,0.0461,0.0483,0.0481,0.049,0.048,0.0479,0.0497,0.0456,0.0458,0.0438,0.0405,0.044,0.0425,0.0396,0.038,0.042,0.0429,0.0437,0.0327,0.0326,0.0325,0.0324,0,0,0.0396,0.0447,0.0452,0.049,0.0502,0.0524,0.0549,0.0581,0.0621,0.0591,0.0649,0.0601,0.0579,0.0569,0.053,0.0528,0.056,0.0482,0.0481,0.0507,0.0596,0.0548,0.0552,0.0539,0.0541,0.0542,0.0584,0,0.0438,0.0514,0.052,0.0589,0.0634,0.0629,0.0666,0.0686,0.0691,0.0734,0.07,0.0726,0.063,0.064,0.062,0.0585,0.0583,0.0552,0.0544,0.0544,0.0507,0.056,0.0532,0.0564,0.0591,0.0593,0.0593,0,0.0485,0.0537,0.0618,0.0696,0.0714,0.0745,0.0819,0.0848,0.0885,0.0894,0.0901,0.0875,0.0873,0.0786,0.0746,0.073,0.0669,0.0629,0.0629,0.0571,0.0512,0.0528,0.0577,0.0433,0.0605,0.0604,0.0603,0,0.053,0.0608,0.0684,0.0708,0.0779,0.0822,0.0859,0.0903,0.0959,0.1008,0.1063,0.103,0.1056,0.0967,0.0854,0.0811,0.0817,0.075,0.0655,0.0651,0.062,0.061,0.0541,0.0734,0.0733,0.0733,0.0733,0,0.0588,0.0648,0.0716,0.0762,0.0863,0.0887,0.0992,0.1024,0.1098,0.1204,0.1152,0.1243,0.1104,0.1079,0.0935,0.083,0.088,0.0688,0.0667,0.064,0.0632,0.0497,0.0399,0.0735,0.0735,0.0734,0.0734,0,0.0633,0.067,0.0766,0.0856,0.089,0.0964,0.1079,0.116,0.1217,0.1362,0.1394,0.1426,0.1408,0.1252,0.1144,0.0967,0.0759,0.0796,0.0771,0.0744,0.0484,0.039,0.0308,0.0251,0.07,0.0699,0.0698,0,0.0665,0.0722,0.0835,0.0899,0.0944,0.1052,0.1137,0.1212,0.1313,0.1494,0.1585,0.1624,0.1687,0.1495,0.1199,0.096,0.0791,0.0745,0.0641,0.0488,0.0369,0.0308,0.0262,0.0632,0.0631,0.063,0.0629,0,0.0737,0.077,0.085,0.0977,0.1073,0.1197,0.1328,0.1428,0.1559,0.1715,0.1926,0.2002,0.1828,0.1591,0.1225,0.1032,0.0621,0.0716,0.0574,0.0329,0.0245,0.0175,0.0584,0.0621,0.0621,0.0622,0.0623,0.0623,0.0785,0.085,0.0948,0.1065,0.1182,0.1341,0.1466,0.164,0.1853,0.2115,0.2164,0.232,0.1905,0.1423,0.1149,0.0576,0.0591,0.0381,0.0291,0.0254,0.016,0.0547,0.0538,0.0538,0.0538,0.0539,0.0539,0,0.0844,0.0919,0.1034,0.1184,0.132,0.1375,0.1596,0.1756,0.2047,0.2285,0.2483,0.233,0.1858,0.1336,0.0551,0.02,0.0088,0.0012,-0.008,-0.0099,0.0267,0.0223,0.0125,0.0125,0.0125,0.0125,0.0125,0.0126,0.0885,0.0992,0.1047,0.1268,0.1388,0.1594,0.1733,0.1999,0.2206,0.25,0.2571,0.258,0.2094,0.081,-0.0003,-0.0171,-0.0386,-0.046,-0.0532,-0.0307,-0.0279,-0.0253,-0.0315,-0.0524,-0.0525,-0.0851,-0.0855,-0.0858]}],[{"header":{"parameterUnit":"m.s-1","parameterCategory":2,"la1":30.2991,"la2":30.254,"lo1":-89.0895,"lo2":-89.0444,"dy":0.0017,"dx":0.0017,"nx":28,"ny":28,"refTime":"2025-04-15T09:00:00:Z","depth":"2","parameterNumber":2,"parameterNumberName":"U-component_of_CURRENTS"},"data":[0,0,0,0,0,0,0,0,0,0,0,0,0,0,0,0,0,0,0,0,0,0,0,0,0,0,0,0,0,0,0,0,0,0,0,0,0,0,0,0,0,0,0,0,0,0,0,0,0,0,0,0,0,0,0,0,0,0,0.2654,0.2654,0,0.2658,0.2658,0.2658,0.2659,0.266,0.266,0.266,0.2654,0.2654,0.2654,0,0,0,0,0,0,0,0,0,0,0,0,0,0.2659,0.2659,0.2654,0.2654,0.2654,0.2658,0.2658,0.2658,0.2659,0.266,0.266,0.266,0.2654,0.2654,0.2654,0,0,0,0,0,0,0,0,0,0,0,0,0,0.2657,0.2659,0.2654,0.2657,0.2658,0.2658,0.2658,0.2658,0.2659,0.266,0.266,0.266,0.2655,0.2654,0.2654,0.2644,0,0,0.2652,0.2652,0,0,0,0,0,0,0,0,0.2657,0.2657,0.2657,0.2657,0.2658,0.2661,0.2658,0.2653,0.2659,0.2656,0.266,0.266,0.2657,0.2656,0.2653,0.2644,0.2643,0.2652,0.2652,0.2651,0.2651,0,0,0,0,0,0,0,0.2657,0.2656,0.2653,0.2657,0.2658,0.2663,0.2663,0.2657,0.2653,0.2656,0.2657,0.2662,0.2657,0.2653,0.2653,0.2643,0.2652,0.2651,0.2651,0.2651,0.2678,0.2679,0,0,0,0,0,0,0.2661,0.2656,0.2653,0.2653,0.2661,0.2663,0.2663,0.2657,0.2653,0.2653,0.2661,0.2662,0.2654,0.2653,0.2653,0.2686,0.2651,0.2651,0.2651,0.2677,0.2679,0.268,0,0,0,0,0,0,0.2661,0.266,0.2653,0.2658,0.2657,0.2663,0.2657,0.2657,0.2666,0.2657,0.2657,0.2672,0.2654,0.2653,0.2661,0.2684,0.2651,0.265,0.2676,0.2678,0.2679,0.2725,0,0,0,0,0,0,0.266,0.2659,0.2662,0.2657,0.2657,0.2661,0.2657,0.2657,0.2669,0.267,0.2666,0.2665,0.2655,0.2662,0.2661,0.2683,0.265,0.2675,0.2677,0.2679,0.2722,0.2728,0.2732,0,0,0,0,0,0.266,0.2659,0.2662,0.2662,0.2659,0.2662,0.2662,0.2666,0.2669,0.2675,0.2675,0.2665,0.2674,0.2662,0.266,0.2683,0.2674,0.2676,0.2679,0.2719,0.2726,0.2732,0,0,0,0,0,0,0.2661,0.2659,0.2662,0.266,0.2667,0.2664,0.267,0.2674,0.2677,0.2682,0.2672,0.2671,0.269,0.2679,0.2666,0.2698,0.2675,0.2677,0.2707,0.2713,0.2718,0.2759,0.2649,0,0,0,0,0,0.2663,0.2662,0.2665,0.2665,0.267,0.2674,0.2678,0.2682,0.2684,0.2686,0.2684,0.2687,0.2696,0.2698,0.27,0.271,0.2751,0.2727,0.2732,0.2736,0.277,0.2858,0.2875,0.2687,0.2687,0.2687,0,0,0.2662,0.2664,0.2662,0.2666,0.2671,0.2682,0.2676,0.2688,0.2703,0.2685,0.2703,0.2705,0.2704,0.2721,0.2729,0.2715,0.2808,0.2739,0.2743,0.2775,0.2862,0.2881,0.2897,0.2689,0.2689,0.2689,0,0,0.2662,0.2664,0.2666,0.2674,0.2689,0.2694,0.2702,0.2708,0.2719,0.2733,0.2733,0.2759,0.2751,0.277,0.2776,0.2813,0.2835,0.2803,0.2861,0.2945,0.2963,0.2978,0.3042,0.3063,0.2803,0.2804,0.2804,0,0.2666,0.2666,0.2668,0.2678,0.2692,0.2703,0.2718,0.273,0.2739,0.2767,0.2747,0.2796,0.2785,0.284,0.285,0.2829,0.2875,0.2833,0.2956,0.2972,0.2987,0.3049,0.3072,0.2806,0.2806,0.2805,0.2805,0,0.2664,0.2675,0.2679,0.2696,0.2712,0.2726,0.2747,0.2771,0.2787,0.2811,0.2869,0.2867,0.2909,0.2899,0.2882,0.298,0.2977,0.2955,0.2943,0.3009,0.3069,0.3092,0.281,0.2809,0.2808,0.2807,0,0,0.2645,0.2672,0.2675,0.2692,0.2725,0.2735,0.278,0.283,0.2889,0.29,0.2979,0.2991,0.3019,0.303,0.3021,0.3081,0.3207,0.3066,0.3069,0.3138,0.3396,0.3269,0.3281,0.321,0.3215,0.3218,0.3391,0,0.2647,0.2669,0.2685,0.2717,0.2734,0.2771,0.2818,0.2871,0.2928,0.3007,0.304,0.3108,0.306,0.3098,0.3152,0.3206,0.3272,0.3163,0.3316,0.3321,0.3207,0.3305,0.3011,0.3129,0.3413,0.3417,0.3419,0,0.2636,0.266,0.2691,0.2745,0.2758,0.2786,0.2888,0.2937,0.3057,0.3109,0.3197,0.3234,0.3333,0.3275,0.3426,0.3363,0.3395,0.342,0.3427,0.3317,0.3237,0.3112,0.316,0.3458,0.3455,0.3452,0.3449,0,0.2617,0.2658,0.2687,0.2701,0.2769,0.2805,0.2857,0.2976,0.305,0.3203,0.3287,0.3395,0.3471,0.3542,0.3577,0.3533,0.3733,0.3676,0.3593,0.3584,0.337,0.3333,0.3799,0.3798,0.3798,0.3798,0.3797,0,0.2601,0.2625,0.2682,0.2695,0.2765,0.2811,0.2926,0.2998,0.3137,0.3241,0.335,0.3447,0.3548,0.3648,0.3661,0.3702,0.3808,0.3644,0.3637,0.3371,0.3335,0.3641,0.362,0.3804,0.3803,0.3801,0.38,0,0.2567,0.2604,0.2651,0.2725,0.2755,0.2814,0.2951,0.3025,0.3175,0.332,0.3374,0.354,0.3674,0.3744,0.3873,0.3807,0.3856,0.3833,0.3501,0.345,0.3634,0.3614,0.3795,0.3792,0.379,0.3788,0.3786,0,0.255,0.2567,0.2662,0.2691,0.2725,0.2826,0.2886,0.3035,0.3122,0.3353,0.3403,0.3591,0.3663,0.3809,0.3765,0.379,0.3854,0.3508,0.3358,0.3668,0.3643,0.3626,0.3609,0.3098,0.3091,0.3085,0.308,0,0.2526,0.2567,0.2599,0.2659,0.2719,0.2791,0.2888,0.2939,0.311,0.3251,0.3373,0.345,0.359,0.3475,0.3509,0.3471,0.3477,0.3388,0.385,0.312,0.3018,0.299,0.2996,0.3029,0.3034,0.3038,0.304,0.3042,0.2519,0.2533,0.2569,0.2617,0.2689,0.2694,0.2706,0.2794,0.2898,0.3002,0.3175,0.3209,0.325,0.3148,0.3055,0.2985,0.3218,0.3055,0.3071,0.3093,0.2958,0.2855,0.281,0.2814,0.2817,0.282,0.2822,0,0.2478,0.2497,0.251,0.2552,0.256,0.2641,0.2666,0.2613,0.2657,0.2776,0.2868,0.2645,0.259,0.2642,0.2447,0.2427,0.2384,0.2329,0.2248,0.2303,0.2351,0.2174,0.182,0.1817,0.1814,0.1811,0,0,0.2471,0.2417,0.2395,0.2387,0.2446,0.2413,0.2394,0.2318,0.234,0.2274,0.2302,0.2495,0.2578,0.2176,0.2115,0.1934,0.2102,0.1857,0.2669,0.2631,0.2674,0.2785,0.2577,0,0,0,0,0]},{"header":{"parameterUnit":"m.s-1","parameterCategory":2,"la1":30.2991,"la2":30.254,"lo1":-89.0895,"lo2":-89.0444,"dy":0.0017,"dx":0.0017,"nx":28,"ny":28,"refTime":"2025-04-15T09:00:00:Z","depth":"2","parameterNumber":3,"parameterNumberName":"V-component_of_CURRENTS"},"data":[0,0,0,0,0,0,0,0,0,0,0,0,0,0,0,0,0,0,0,0,0,0,0,0,0,0,0,0,0,0,0,0,0,0,0,0,0,0,0,0,0,0,0,0,0,0,0,0,0,0,0,0,0,0,0,0,0,0,0.0195,0.0195,0,0.0173,0.0173,0.0172,0.0155,0.0155,0.0155,0.0155,0.011,0.0109,0.0108,0,0,0,0,0,0,0,0,0,0,0,0,0,0.0178,0.0178,0.0195,0.0195,0.0195,0.0173,0.0173,0.0172,0.0155,0.0155,0.0155,0.0155,0.0111,0.0109,0.0108,0,0,0,0,0,0,0,0,0,0,0,0,0,0.0172,0.0179,0.0195,0.0185,0.0184,0.0173,0.0173,0.0172,0.0155,0.0155,0.0155,0.0155,0.0111,0.0109,0.0108,0.0098,0,0,0.0102,0.0102,0,0,0,0,0,0,0,0,0.0173,0.0173,0.0186,0.0185,0.0184,0.0168,0.015,0.0147,0.0155,0.0165,0.0155,0.0155,0.0128,0.0125,0.012,0.0096,0.0094,0.0102,0.0101,0.01,0.01,0,0,0,0,0,0,0,0.0173,0.0174,0.0185,0.0186,0.0185,0.0165,0.0165,0.0149,0.0146,0.0164,0.0163,0.0162,0.0127,0.0121,0.0118,0.0094,0.0102,0.0101,0.01,0.0099,0.0071,0.0071,0,0,0,0,0,0,0.0181,0.0174,0.0186,0.0185,0.018,0.0166,0.0165,0.0172,0.0146,0.0143,0.0162,0.0162,0.0124,0.012,0.0117,0.0124,0.01,0.0099,0.0098,0.007,0.0071,0.0071,0,0,0,0,0,0,0.0181,0.0183,0.0187,0.0179,0.0179,0.0167,0.0174,0.0172,0.0169,0.0146,0.0142,0.0163,0.0124,0.0119,0.011,0.0121,0.0098,0.0096,0.007,0.007,0.0071,0.0126,0,0,0,0,0,0,0.0181,0.0183,0.0187,0.018,0.0179,0.0189,0.0174,0.0171,0.0169,0.0168,0.0145,0.0141,0.0124,0.0113,0.0109,0.0119,0.0095,0.007,0.007,0.0071,0.0124,0.0128,0.0132,0,0,0,0,0,0.018,0.019,0.0188,0.0189,0.0187,0.0189,0.0187,0.0177,0.017,0.0173,0.0158,0.0141,0.0113,0.0112,0.0107,0.0117,0.0069,0.007,0.0071,0.0122,0.0128,0.0132,0,0,0,0,0,0,0.0182,0.0189,0.0186,0.0197,0.0196,0.0187,0.0188,0.0181,0.0171,0.0168,0.0145,0.014,0.0135,0.0117,0.0116,0.0109,0.0088,0.0088,0.0129,0.0134,0.0138,0.0154,0.0094,0,0,0,0,0,0.0186,0.0197,0.0197,0.0205,0.0207,0.0198,0.0196,0.0191,0.0182,0.0178,0.0163,0.0145,0.0133,0.0127,0.0111,0.0108,0.0091,0.011,0.0114,0.0118,0.0127,0.0113,0.0117,0.0073,0.0073,0.0073,0,0,0.0187,0.0194,0.0199,0.0207,0.0204,0.0215,0.0196,0.0199,0.021,0.0174,0.018,0.0158,0.0134,0.0132,0.0129,0.012,0.0119,0.0118,0.0122,0.0129,0.0114,0.0118,0.0122,0.0073,0.0073,0.0073,0,0,0.0203,0.0204,0.0222,0.0227,0.023,0.0226,0.023,0.0225,0.0225,0.0226,0.0204,0.0192,0.0171,0.0162,0.0153,0.017,0.014,0.016,0.0197,0.0183,0.0187,0.019,0.017,0.0171,0.0164,0.0164,0.0164,0,0.0204,0.0231,0.0225,0.0245,0.0257,0.0236,0.026,0.0255,0.0247,0.0255,0.0235,0.0215,0.0189,0.0197,0.0198,0.0181,0.0164,0.0182,0.019,0.0193,0.0195,0.0174,0.0174,0.0167,0.0166,0.0166,0.0166,0,0.0237,0.0258,0.0269,0.0292,0.03,0.0316,0.0314,0.0319,0.0311,0.0306,0.0309,0.0275,0.0265,0.0251,0.0227,0.0234,0.0213,0.0196,0.0181,0.0203,0.0179,0.0178,0.0171,0.017,0.0169,0.0168,0,0,0.0246,0.0287,0.0291,0.0322,0.0331,0.0349,0.0364,0.0382,0.041,0.038,0.0412,0.0372,0.0348,0.0336,0.0304,0.0288,0.0279,0.025,0.0248,0.0237,0.0244,0.0201,0.0195,0.0263,0.0263,0.0263,0.022,0,0.0277,0.0337,0.0342,0.0397,0.0431,0.0426,0.0452,0.0462,0.0462,0.0482,0.0442,0.0453,0.0382,0.0387,0.0353,0.0311,0.028,0.0292,0.0219,0.0217,0.0181,0.0194,0.0218,0.0179,0.0219,0.0219,0.0219,0,0.0312,0.0354,0.0416,0.0479,0.0494,0.0517,0.0569,0.0593,0.0602,0.0604,0.0588,0.0556,0.0531,0.0469,0.0388,0.0399,0.032,0.0274,0.0271,0.0212,0.0172,0.0163,0.0176,0.0217,0.0217,0.0217,0.0218,0,0.0344,0.0407,0.0467,0.0485,0.0543,0.0574,0.0606,0.063,0.0681,0.069,0.0727,0.0663,0.0666,0.0559,0.0436,0.0419,0.0344,0.0311,0.0192,0.0188,0.0185,0.018,0.0241,0.0241,0.0241,0.0241,0.0241,0,0.0385,0.0434,0.0491,0.0527,0.0613,0.063,0.0723,0.0739,0.079,0.0876,0.0798,0.0847,0.069,0.0621,0.048,0.0337,0.0371,0.0203,0.0177,0.0202,0.02,0.0215,0.0212,0.0239,0.024,0.024,0.024,0,0.0417,0.0447,0.053,0.0603,0.0634,0.0701,0.0814,0.0891,0.0917,0.1029,0.1044,0.0998,0.0914,0.0736,0.0578,0.0419,0.0276,0.0207,0.024,0.0218,0.0114,0.0115,0.0082,0.008,0.0078,0.0077,0.0076,0,0.044,0.0484,0.0591,0.0656,0.0695,0.0801,0.0889,0.095,0.1048,0.1138,0.1208,0.1146,0.112,0.0847,0.0571,0.031,0.0273,0.0141,0.0102,0.0121,0.0099,0.0103,0.0106,0.012,0.012,0.0119,0.0119,0,0.0494,0.0528,0.0602,0.0734,0.0836,0.0972,0.1101,0.1202,0.1304,0.1383,0.1475,0.1451,0.1187,0.0922,0.0538,0.0359,0.0182,0.0121,0.0153,0.015,0.0152,0.0132,0.0135,0.0114,0.0115,0.0115,0.0115,0.0115,0.0537,0.0603,0.0703,0.0832,0.0955,0.1137,0.1266,0.1415,0.1576,0.1705,0.1663,0.1616,0.1292,0.0801,0.0485,0.0148,0.0161,0.0031,0.0036,0.004,0.0045,0.0044,-0.0013,-0.0014,-0.0014,-0.0014,-0.0014,0,0.0598,0.0681,0.08,0.0969,0.1117,0.1176,0.1406,0.1533,0.1737,0.1812,0.185,0.1527,0.1217,0.0853,0.0352,0.0044,0.0032,-0.0052,0.0005,0.0011,0.0016,0.0022,-0.0044,-0.0045,-0.0046,-0.0046,0,0,0.0641,0.0764,0.0832,0.108,0.1202,0.142,0.1563,0.1731,0.1826,0.1889,0.1843,0.1746,0.1305,0.0936,0.0528,0.0245,0.02,0.0188,0.0243,0.0364,0.0374,0.0092,0.0111,0,0,0,0,0]}],[{"header":{"parameterUnit":"m.s-1","parameterCategory":2,"la1":30.2991,"la2":30.254,"lo1":-89.0895,"lo2":-89.0444,"dy":0.0017,"dx":0.0017,"nx":28,"ny":28,"refTime":"2025-04-15T09:00:00:Z","depth":"4","parameterNumber":2,"parameterNumberName":"U-component_of_CURRENTS"},"data":[0,0,0,0,0,0,0,0,0,0,0,0,0,0,0,0,0,0,0,0,0,0,0,0,0,0,0,0,0,0,0,0,0,0,0,0,0,0,0,0,0,0,0,0,0,0,0,0,0,0,0,0,0,0,0,0,0,0,0.1651,0.1652,0,0.1703,0.1703,0.1703,0.1757,0.1758,0.1759,0.176,0.182,0.1821,0.1822,0,0,0,0,0,0,0,0,0,0,0,0,0,0.1603,0.1604,0.1651,0.1652,0.1653,0.1702,0.1703,0.1703,0.1757,0.1758,0.1759,0.176,0.182,0.1821,0.1822,0,0,0,0,0,0,0,0,0,0,0,0,0,0.1634,0.1604,0.1651,0.1687,0.1691,0.1702,0.1703,0.1704,0.1757,0.1758,0.176,0.1761,0.182,0.1821,0.1822,0.18,0,0,0.1825,0.1826,0,0,0,0,0,0,0,0,0.1632,0.1636,0.1681,0.1685,0.1689,0.1727,0.1709,0.1737,0.1756,0.173,0.176,0.1762,0.179,0.1794,0.1797,0.1803,0.1806,0.1825,0.1826,0.1827,0.1827,0,0,0,0,0,0,0,0.163,0.1634,0.1669,0.1682,0.1687,0.1702,0.1708,0.1714,0.175,0.1732,0.1737,0.1745,0.1793,0.1796,0.1799,0.1807,0.1825,0.1826,0.1827,0.1827,0.1914,0.1916,0,0,0,0,0,0,0.1626,0.1632,0.1668,0.1671,0.1666,0.1702,0.1708,0.1712,0.175,0.1757,0.1744,0.1748,0.1793,0.1798,0.1801,0.1879,0.1827,0.1828,0.1828,0.1912,0.1914,0.1916,0,0,0,0,0,0,0.1625,0.1629,0.1666,0.1655,0.1661,0.1702,0.1705,0.1712,0.1754,0.1759,0.1767,0.1783,0.1795,0.18,0.1842,0.1878,0.1828,0.1829,0.1911,0.1913,0.1915,0.197,0,0,0,0,0,0,0.1623,0.1628,0.1647,0.1654,0.1661,0.1695,0.1704,0.1712,0.1755,0.1762,0.1794,0.1799,0.1796,0.1841,0.1843,0.1879,0.183,0.1908,0.1912,0.1915,0.1966,0.1974,0.1981,0,0,0,0,0,0.1621,0.1633,0.1647,0.1653,0.168,0.1696,0.1702,0.1734,0.1756,0.1776,0.1805,0.18,0.1863,0.1843,0.1845,0.1882,0.1907,0.1911,0.1914,0.1963,0.1972,0.198,0,0,0,0,0,0,0.1624,0.164,0.1656,0.1674,0.1697,0.1707,0.1734,0.1753,0.179,0.181,0.1815,0.1822,0.1874,0.187,0.1848,0.1918,0.1886,0.1891,0.1922,0.1931,0.1938,0.194,0.1831,0,0,0,0,0,0.1632,0.1649,0.1664,0.1685,0.1699,0.1724,0.1743,0.1765,0.1789,0.1809,0.1832,0.186,0.1883,0.1903,0.1919,0.1951,0.196,0.198,0.1987,0.1993,0.1998,0.2042,0.2054,0.1928,0.1928,0.1928,0,0,0.164,0.1653,0.1664,0.1689,0.1711,0.1733,0.174,0.1778,0.1808,0.1808,0.1868,0.1887,0.1898,0.194,0.1963,0.1947,0.2036,0.1998,0.2003,0.2004,0.2047,0.2059,0.207,0.1931,0.1931,0.193,0,0,0.1652,0.1676,0.1693,0.1713,0.1752,0.1765,0.1784,0.1817,0.1849,0.1895,0.1909,0.1952,0.1986,0.2003,0.2012,0.2069,0.2073,0.2084,0.2123,0.2166,0.2177,0.2186,0.2221,0.2233,0.2088,0.2088,0.2088,0,0.1668,0.1682,0.1703,0.1724,0.1745,0.1783,0.1806,0.1839,0.1886,0.1913,0.1927,0.2,0.2013,0.2059,0.2086,0.2086,0.2111,0.2086,0.2175,0.2185,0.2193,0.2227,0.2239,0.2091,0.2091,0.209,0.209,0,0.1677,0.1706,0.172,0.1757,0.1784,0.1812,0.1851,0.1896,0.1941,0.197,0.2042,0.2067,0.211,0.2126,0.2125,0.2196,0.2195,0.2179,0.2151,0.2209,0.2241,0.2253,0.2095,0.2094,0.2093,0.2093,0,0,0.1665,0.1716,0.1726,0.1743,0.1803,0.1816,0.1881,0.193,0.1973,0.2039,0.2095,0.215,0.218,0.2193,0.2208,0.2249,0.2335,0.225,0.2251,0.228,0.244,0.2274,0.2271,0.2343,0.2345,0.2347,0.244,0,0.1672,0.1701,0.1734,0.1775,0.1789,0.1846,0.1895,0.1953,0.2011,0.2077,0.2134,0.2194,0.2201,0.2236,0.2283,0.233,0.2369,0.2311,0.2382,0.2384,0.2226,0.228,0.2354,0.2449,0.2452,0.2454,0.2455,0,0.1663,0.1683,0.1717,0.1769,0.1785,0.1826,0.1901,0.1955,0.2055,0.2106,0.2185,0.2231,0.2325,0.2311,0.243,0.2401,0.2427,0.2451,0.2455,0.2286,0.2239,0.2377,0.2477,0.2475,0.2473,0.2472,0.2471,0,0.1609,0.1668,0.1691,0.1709,0.1779,0.1821,0.1877,0.1969,0.2024,0.214,0.2198,0.2297,0.2383,0.2434,0.2502,0.2482,0.2615,0.2584,0.2454,0.2444,0.2541,0.253,0.2646,0.2646,0.2646,0.2646,0.2645,0,0.1572,0.1594,0.1673,0.1681,0.172,0.1795,0.1865,0.193,0.2048,0.2115,0.2221,0.2288,0.2425,0.2511,0.2534,0.2538,0.2646,0.2468,0.2456,0.2563,0.2553,0.255,0.2538,0.2649,0.2648,0.2648,0.2647,0,0.1496,0.1551,0.1576,0.166,0.1693,0.1725,0.1856,0.1894,0.2032,0.2129,0.2177,0.2338,0.2446,0.2537,0.2642,0.2577,0.2588,0.2553,0.2678,0.2671,0.238,0.237,0.2413,0.2408,0.2404,0.24,0.2397,0,0.145,0.1456,0.1545,0.156,0.1603,0.1679,0.1722,0.1866,0.1914,0.2132,0.2155,0.2329,0.2413,0.2442,0.2539,0.2563,0.2527,0.2513,0.2421,0.2372,0.2357,0.2354,0.2349,0.239,0.2389,0.2388,0.2387,0,0.135,0.1401,0.1417,0.1461,0.1503,0.1549,0.1634,0.1663,0.1836,0.1989,0.2089,0.2157,0.2277,0.2353,0.2395,0.24,0.2509,0.2467,0.2474,0.2389,0.2345,0.2334,0.2334,0.2372,0.2374,0.2375,0.2376,0,0.1277,0.1259,0.1299,0.1321,0.1378,0.1391,0.1459,0.1532,0.1616,0.186,0.1899,0.2085,0.2265,0.2269,0.2303,0.2301,0.2257,0.2167,0.2189,0.2207,0.2091,0.2002,0.192,0,0,0,0,0,0.1193,0.1152,0.1154,0.117,0.1235,0.1283,0.1376,0.1455,0.164,0.1656,0.1778,0.1874,0.1965,0.2062,0.2017,0.2183,0.2243,0.2118,0.2145,0.2289,0.2306,0.2187,0,0,0,0,0,0,0.1123,0.112,0.1096,0.105,0.1061,0.1115,0.1178,0.1302,0.1323,0.1532,0.1592,0.176,0.1869,0.1987,0.1991,0.2014,0.1987,0.2239,0.2233,0.2279,0.2295,0.2309,0.2192,0,0,0,0,0]},{"header":{"parameterUnit":"m.s-1","parameterCategory":2,"la1":30.2991,"la2":30.254,"lo1":-89.0895,"lo2":-89.0444,"dy":0.0017,"dx":0.0017,"nx":28,"ny":28,"refTime":"2025-04-15T09:00:00:Z","depth":"4","parameterNumber":3,"parameterNumberName":"V-component_of_CURRENTS"},"data":[0,0,0,0,0,0,0,0,0,0,0,0,0,0,0,0,0,0,0,0,0,0,0,0,0,0,0,0,0,0,0,0,0,0,0,0,0,0,0,0,0,0,0,0,0,0,0,0,0,0,0,0,0,0,0,0,0,0,0.0145,0.0145,0,0.013,0.013,0.013,0.0124,0.0124,0.0124,0.0124,0.0091,0.009,0.0089,0,0,0,0,0,0,0,0,0,0,0,0,0,0.0134,0.0134,0.0145,0.0145,0.0145,0.013,0.013,0.013,0.0124,0.0124,0.0124,0.0124,0.0091,0.009,0.0089,0,0,0,0,0,0,0,0,0,0,0,0,0,0.013,0.0134,0.0145,0.0141,0.014,0.013,0.013,0.013,0.0124,0.0124,0.0124,0.0124,0.0092,0.009,0.0089,0.0077,0,0,0.0084,0.0084,0,0,0,0,0,0,0,0,0.0131,0.0131,0.0141,0.0141,0.014,0.0129,0.0114,0.0111,0.0123,0.0129,0.0124,0.0124,0.0102,0.01,0.0096,0.0076,0.0074,0.0084,0.0083,0.0083,0.0082,0,0,0,0,0,0,0,0.0131,0.0131,0.0139,0.0141,0.0141,0.0127,0.0127,0.0113,0.0114,0.0129,0.0128,0.0128,0.0102,0.0098,0.0096,0.0074,0.0084,0.0083,0.0082,0.0082,0.0052,0.0052,0,0,0,0,0,0,0.0136,0.0132,0.0139,0.0138,0.0136,0.0128,0.0127,0.0132,0.0115,0.0113,0.0127,0.0127,0.01,0.0097,0.0094,0.0098,0.0083,0.0081,0.0081,0.0052,0.0052,0.0052,0,0,0,0,0,0,0.0136,0.0137,0.014,0.0135,0.0134,0.0128,0.0133,0.0132,0.0132,0.0114,0.0112,0.013,0.01,0.0096,0.0089,0.0096,0.0081,0.0079,0.0052,0.0052,0.0052,0.0093,0,0,0,0,0,0,0.0136,0.0137,0.0141,0.0135,0.0135,0.014,0.0133,0.0132,0.0131,0.0131,0.0115,0.0112,0.01,0.0091,0.0088,0.0094,0.0078,0.0052,0.0052,0.0052,0.0092,0.0095,0.0097,0,0,0,0,0,0.0135,0.0142,0.0141,0.0142,0.0141,0.0141,0.0139,0.0134,0.0132,0.0134,0.0124,0.0113,0.0089,0.009,0.0086,0.0092,0.0052,0.0052,0.0052,0.0091,0.0094,0.0097,0,0,0,0,0,0,0.0136,0.0142,0.0141,0.0148,0.0147,0.014,0.0141,0.0137,0.0131,0.0131,0.0114,0.0111,0.0106,0.0091,0.0093,0.0083,0.0068,0.0068,0.0099,0.0102,0.0105,0.0118,0.0077,0,0,0,0,0,0.0139,0.0148,0.0147,0.0153,0.0154,0.0148,0.0147,0.0145,0.0138,0.0136,0.0126,0.0113,0.0102,0.0097,0.0084,0.0079,0.0057,0.0079,0.0082,0.0084,0.0092,0.0066,0.0068,0.0053,0.0053,0.0053,0,0,0.014,0.0145,0.0149,0.0154,0.0152,0.016,0.0148,0.015,0.0158,0.0133,0.0139,0.0121,0.0102,0.0098,0.0095,0.0089,0.0074,0.0085,0.0087,0.0093,0.0067,0.0068,0.0069,0.0053,0.0053,0.0053,0,0,0.015,0.0152,0.0164,0.0167,0.017,0.0168,0.0171,0.0168,0.0169,0.0169,0.0154,0.0144,0.0126,0.0119,0.0111,0.0119,0.0089,0.0111,0.0138,0.0114,0.0115,0.0116,0.0081,0.0078,0.0114,0.0114,0.0114,0,0.015,0.0169,0.0166,0.0179,0.0188,0.0175,0.0192,0.0188,0.0184,0.0189,0.0177,0.0157,0.0138,0.014,0.0141,0.0127,0.0102,0.0129,0.0118,0.0118,0.0119,0.0083,0.0079,0.0116,0.0116,0.0116,0.0116,0,0.017,0.0186,0.0193,0.021,0.0217,0.0228,0.0228,0.0234,0.0231,0.0225,0.0225,0.0199,0.019,0.0178,0.0162,0.0157,0.0134,0.0124,0.0112,0.0123,0.0084,0.008,0.0119,0.0118,0.0118,0.0117,0,0,0.0172,0.0203,0.0207,0.0233,0.0239,0.0254,0.0266,0.0279,0.0299,0.0276,0.0296,0.0266,0.0248,0.0238,0.0214,0.0192,0.0164,0.016,0.0158,0.0131,0.0098,0.0078,0.007,0.0149,0.0148,0.0148,0.0068,0,0.0192,0.0234,0.024,0.0284,0.031,0.0311,0.0332,0.0339,0.0336,0.0347,0.0314,0.0317,0.0272,0.0273,0.024,0.0189,0.0156,0.0186,0.0088,0.0085,0.007,0.0066,0.0147,0.0064,0.0063,0.0063,0.0062,0,0.0212,0.0244,0.0292,0.0348,0.0359,0.0381,0.0425,0.0444,0.0442,0.044,0.0422,0.0389,0.0356,0.0318,0.0225,0.0244,0.0174,0.0126,0.0121,0.0088,0.0058,0.0053,0.0054,0.0055,0.0055,0.0056,0.0056,0,0.0234,0.0284,0.0332,0.0347,0.0397,0.0427,0.0457,0.0473,0.051,0.0502,0.0515,0.0455,0.0444,0.0346,0.023,0.0228,0.012,0.0105,0.0016,0.0013,0.0038,0.0038,0.0034,0.0034,0.0035,0.0035,0.0035,0,0.0259,0.0299,0.0351,0.038,0.0456,0.0473,0.055,0.0563,0.0594,0.0639,0.057,0.0579,0.0451,0.0368,0.0249,0.0117,0.0128,0.002,-0.0006,0.0055,0.0058,0.0034,0.0035,0.0032,0.0032,0.0033,0.0034,0,0.0279,0.0304,0.0373,0.044,0.0471,0.053,0.0628,0.0681,0.0692,0.0747,0.0747,0.0678,0.0565,0.0416,0.0262,0.0158,0.0024,-0.0029,0.0041,0.002,-0.0073,-0.0068,-0.0129,-0.013,-0.0131,-0.0132,-0.0133,0,0.0293,0.0327,0.0425,0.0483,0.052,0.0614,0.0685,0.0732,0.0788,0.0806,0.0831,0.0738,0.0667,0.0434,0.0267,0.003,-0.0005,-0.0081,-0.0074,-0.0068,-0.0088,-0.0082,-0.0077,-0.0135,-0.0135,-0.0136,-0.0136,0,0.0328,0.0361,0.0424,0.054,0.0626,0.0733,0.0828,0.0872,0.0922,0.0928,0.0903,0.0772,0.0643,0.0444,0.0256,0.0086,-0.0034,-0.0093,-0.0092,-0.0086,-0.0077,-0.0093,-0.0087,-0.014,-0.0139,-0.0139,-0.0139,0,0.036,0.0412,0.0496,0.0604,0.0709,0.0812,0.0865,0.0929,0.0979,0.0979,0.0969,0.0813,0.0731,0.0473,0.03,0.0127,0.0083,0.0027,0.0022,0.0024,0.0085,0.0122,0.0099,0,0,0,0,0,0.039,0.0455,0.0556,0.0673,0.0776,0.0843,0.0945,0.0986,0.102,0.1013,0.0994,0.0865,0.061,0.0502,0.0327,0.0266,0.0044,0.0053,-0.0025,-0.0161,-0.0157,-0.0113,0,0,0,0,0,0,0.0414,0.0503,0.0559,0.0705,0.0792,0.0915,0.0981,0.101,0.1008,0.1006,0.0876,0.0815,0.0569,0.0711,0.0322,0.027,0.0194,-0.0063,-0.0067,-0.0164,-0.016,-0.0156,-0.011,0,0,0,0,0]}]]